Weather History for Watertown, SD

Change the Weather History Date:

Monday, October 29, 2012

  Actual Average Record
Temperature  
Mean Temperature 44 °F 40 °F  
Max Temperature 53 °F 50 °F 78 °F (1937)
Min Temperature 35 °F 30 °F -2 °F (1925)
Degree Days  
Heating Degree Days 21 25  
Month to date heating degree days 603 556  
Since 1 July heating degree days 842 832  
Cooling Degree Days 0 0  
Month to date cooling degree days 0 0  
Year to date cooling degree days 788 513  
Moisture  
Dew Point 30 °F    
Average Humidity 61    
Maximum Humidity 76    
Minimum Humidity 46    
Precipitation  
Precipitation 0.00 in 0.04 in 2.05 in (1956)
Month to date precipitation 1.61 1.83  
Year to date precipitation 17.22 20.70  
Snow  
Snow 0.00 in - - ()
Month to date snowfall 0.5  
Since 1 July snowfall 0.5  
Snow Depth 0.00 in    
Sea Level Pressure  
Sea Level Pressure 30.13 in    
Wind  
Wind Speed 12 mph (SSE)    
Max Wind Speed 21 mph    
Max Gust Speed 25 mph    
Visibility 10 miles    
Events      
T = Trace of Precipitation, MM = Missing Value Source: NWS Daily Summary

Daily Weather History Graph

Daily Weather History Graph

Search for Another Location

Airport:

Trip Planner

Search our weather history database for the weather conditions in past years. The results will help you decide how hot, cold, wet, or windy it might be!

Date:

Astronomy

Oct. 29, 2012 Rise Set
Actual Time 8:03 AM CDT 6:20 PM CDT
Civil Twilight 7:33 AM CDT 6:50 PM CDT
Nautical Twilight 6:58 AM CDT 7:25 PM CDT
Astronomical Twilight 6:24 AM CDT 7:59 PM CDT
Moon 6:11 PM CDT (10/29) 7:56 AM CDT (10/29)
Length of Visible Light 11h 17m
Length of Day
10h 16m
Full, 100% of the Moon is Illuminated
Oct 29
Full
Oct 29
Full
Nov 6
Last Quarter
Nov 13
New
Nov 20
First Quarter

Hourly Weather History & Observations

Time (CDT) Temp. Windchill Dew Point Humidity Pressure Visibility Wind Dir Wind Speed Gust Speed Precip Events Conditions
12:53 AM 37.9 °F 29.6 °F 30.0 °F 73% 30.15 in 10.0 mi SSE 13.8 mph - N/A   Overcast
1:53 AM 39.0 °F 30.3 °F 30.0 °F 70% 30.13 in 10.0 mi SSE 16.1 mph - N/A   Overcast
2:53 AM 39.0 °F 30.6 °F 30.0 °F 70% 30.14 in 10.0 mi SSE 15.0 mph - N/A   Overcast
3:53 AM 39.0 °F 31.8 °F 30.0 °F 70% 30.13 in 10.0 mi SSE 11.5 mph - N/A   Overcast
4:53 AM 39.0 °F 30.6 °F 30.0 °F 70% 30.12 in 10.0 mi SSE 15.0 mph 21.9 mph N/A   Mostly Cloudy
5:53 AM 37.9 °F 29.6 °F 30.0 °F 73% 30.12 in 10.0 mi SSE 13.8 mph - N/A   Overcast
6:53 AM 37.9 °F 30.0 °F 28.9 °F 70% 30.13 in 10.0 mi SSE 12.7 mph - N/A   Overcast
7:53 AM 36.0 °F 28.0 °F 28.9 °F 76% 30.13 in 10.0 mi SSE 11.5 mph - N/A   Overcast
8:53 AM 36.0 °F 28.5 °F 28.9 °F 76% 30.14 in 10.0 mi SSE 10.4 mph - N/A   Clear
9:53 AM 39.0 °F 30.6 °F 28.9 °F 67% 30.14 in 10.0 mi South 15.0 mph - N/A   Clear
10:53 AM 43.0 °F 34.8 °F 30.0 °F 60% 30.15 in 10.0 mi South 18.4 mph 24.2 mph N/A   Clear
11:53 AM 46.0 °F 39.3 °F 30.9 °F 56% 30.15 in 10.0 mi South 16.1 mph - N/A   Clear
12:53 PM 48.0 °F - 30.9 °F 52% 30.14 in 10.0 mi South 16.1 mph 23.0 mph N/A   Clear
1:53 PM 50.0 °F - 30.9 °F 48% 30.13 in 10.0 mi SSE 9.2 mph - N/A   Partly Cloudy
2:53 PM 52.0 °F - 32.0 °F 47% 30.12 in 10.0 mi SSE 13.8 mph - N/A   Mostly Cloudy
3:53 PM 52.0 °F - 32.0 °F 47% 30.11 in 10.0 mi South 13.8 mph - N/A   Partly Cloudy
4:53 PM 52.0 °F - 32.0 °F 47% 30.11 in 10.0 mi South 10.4 mph - N/A   Clear
5:53 PM 50.0 °F - 30.9 °F 48% 30.12 in 10.0 mi SE 8.1 mph - N/A   Clear
6:53 PM 46.0 °F 43.9 °F 30.9 °F 56% 30.13 in 10.0 mi ESE 4.6 mph - N/A   Clear
7:53 PM 44.1 °F 40.8 °F 30.9 °F 60% 30.14 in 10.0 mi ESE 5.8 mph - N/A   Clear
8:53 PM 43.0 °F 38.8 °F 30.0 °F 60% 30.14 in 10.0 mi SE 6.9 mph - N/A   Clear
9:53 PM 41.0 °F 36.4 °F 30.0 °F 65% 30.14 in 10.0 mi SE 6.9 mph - N/A   Clear
10:53 PM 39.9 °F 35.1 °F 30.0 °F 68% 30.13 in 10.0 mi SSE 6.9 mph - N/A   Clear
11:53 PM 39.0 °F 32.8 °F 30.0 °F 70% 30.14 in 10.0 mi SE 9.2 mph - N/A   Clear